[[{"header":{"parameterUnit":"m.s-1","parameterCategory":1,"la1":30.2991,"la2":30.254,"lo1":-89.0895,"lo2":-89.0444,"dy":0.0017,"dx":0.0017,"nx":28,"ny":28,"refTime":"2024-04-13T09:00:00:Z","depth":0,"parameterNumber":2,"parameterNumberName":"U-component_of_WINDS"},"data":[0,0,0,0,0,0,0,0,0,0,0,0,0,0,0,0,0,0,0,0,0,0,0,0,0,0,0,0,0,0,0,0,0,0,0,0,0,0,0,0,0,0,0,0,0,0,0,0,0,0,0,0,0,0,0,0,0,0,-1.6678,-1.6678,0,-1.67,-1.67,-1.67,-1.6669,-1.6668,-1.6667,-1.6666,-1.6689,-1.6691,-1.6693,0,0,0,0,0,0,0,0,0,0,0,0,0,-1.661,-1.6612,-1.6678,-1.6678,-1.6678,-1.67,-1.67,-1.67,-1.6669,-1.6668,-1.6666,-1.6665,-1.6689,-1.6691,-1.6693,0,0,0,0,0,0,0,0,0,0,0,0,0,-1.6637,-1.6612,-1.6677,-1.6665,-1.6664,-1.67,-1.67,-1.67,-1.6669,-1.6668,-1.6666,-1.6664,-1.6688,-1.669,-1.6693,-1.6742,0,0,-1.6701,-1.6702,0,0,0,0,0,0,0,0,-1.6635,-1.6639,-1.6667,-1.6666,-1.6665,-1.668,-1.6685,-1.6714,-1.667,-1.6667,-1.6666,-1.6664,-1.6688,-1.669,-1.6698,-1.6743,-1.6744,-1.6701,-1.6702,-1.6703,-1.6704,0,0,0,0,0,0,0,-1.6633,-1.6638,-1.6686,-1.6667,-1.6666,-1.6659,-1.6661,-1.669,-1.6687,-1.6668,-1.6665,-1.6668,-1.6687,-1.6695,-1.6698,-1.6744,-1.6701,-1.6703,-1.6705,-1.6705,-1.6831,-1.6833,0,0,0,0,0,0,-1.6633,-1.6637,-1.6686,-1.6687,-1.6646,-1.6662,-1.6664,-1.6677,-1.6686,-1.6686,-1.667,-1.6667,-1.6692,-1.6695,-1.6699,-1.6757,-1.6703,-1.6706,-1.6707,-1.683,-1.6832,-1.6834,0,0,0,0,0,0,-1.6632,-1.6638,-1.6685,-1.6661,-1.6667,-1.6665,-1.6679,-1.6678,-1.6687,-1.6688,-1.6687,-1.6679,-1.6691,-1.6695,-1.6731,-1.6757,-1.6707,-1.6709,-1.6827,-1.683,-1.6833,-1.6872,0,0,0,0,0,0,-1.663,-1.6637,-1.6655,-1.6662,-1.6668,-1.6716,-1.6681,-1.668,-1.6691,-1.6687,-1.6696,-1.6696,-1.669,-1.6728,-1.6734,-1.6759,-1.6711,-1.6825,-1.6829,-1.6832,-1.6869,-1.6876,-1.6883,0,0,0,0,0,-1.6627,-1.6665,-1.6656,-1.6662,-1.669,-1.6718,-1.6721,-1.6713,-1.6693,-1.6711,-1.6713,-1.6696,-1.6754,-1.6732,-1.6738,-1.6765,-1.6823,-1.6828,-1.6832,-1.6866,-1.6875,-1.6882,0,0,0,0,0,0,-1.6662,-1.6666,-1.6656,-1.6697,-1.6707,-1.6712,-1.6735,-1.6723,-1.6739,-1.6735,-1.6724,-1.6726,-1.6765,-1.6769,-1.6745,-1.6813,-1.6785,-1.6791,-1.6809,-1.6818,-1.6824,-1.6822,-1.6713,0,0,0,0,0,-1.6674,-1.6696,-1.6698,-1.6735,-1.674,-1.6737,-1.6749,-1.6741,-1.6752,-1.6756,-1.6759,-1.6771,-1.6791,-1.6805,-1.6824,-1.687,-1.6872,-1.6892,-1.6899,-1.6904,-1.6909,-1.6934,-1.6943,-1.6847,-1.6847,-1.6847,0,0,-1.67,-1.6705,-1.6719,-1.6742,-1.6749,-1.6772,-1.6741,-1.6766,-1.6783,-1.676,-1.6794,-1.6797,-1.6809,-1.6851,-1.6869,-1.6855,-1.6936,-1.691,-1.6914,-1.6916,-1.6939,-1.6948,-1.6956,-1.685,-1.685,-1.6849,0,0,-1.6758,-1.6764,-1.6795,-1.6803,-1.6814,-1.6812,-1.682,-1.6827,-1.6828,-1.6862,-1.6845,-1.6866,-1.6902,-1.6911,-1.692,-1.6984,-1.697,-1.6991,-1.7026,-1.7051,-1.7059,-1.7065,-1.7088,-1.7096,-1.6996,-1.6996,-1.6996,0,-1.6788,-1.6821,-1.6812,-1.6839,-1.685,-1.683,-1.6862,-1.687,-1.6887,-1.6895,-1.688,-1.6925,-1.6931,-1.6975,-1.699,-1.6999,-1.7007,-1.6989,-1.7058,-1.7065,-1.7071,-1.7092,-1.7101,-1.6998,-1.6998,-1.6998,-1.6998,0,-1.6858,-1.6882,-1.6906,-1.6922,-1.6936,-1.6965,-1.6961,-1.6976,-1.6969,-1.6969,-1.7004,-1.7012,-1.7032,-1.7042,-1.7035,-1.7085,-1.7076,-1.706,-1.7031,-1.7082,-1.7102,-1.711,-1.7002,-1.7001,-1.7,-1.7,0,0,-1.6937,-1.6949,-1.6958,-1.6966,-1.6977,-1.6996,-1.7025,-1.7045,-1.7058,-1.7071,-1.7095,-1.7127,-1.7112,-1.7123,-1.7116,-1.7138,-1.7188,-1.7119,-1.7119,-1.7131,-1.7245,-1.7256,-1.7266,-1.718,-1.7181,-1.7183,-1.7243,0,-1.6994,-1.7043,-1.7037,-1.7084,-1.7106,-1.7089,-1.7114,-1.7125,-1.7126,-1.7145,-1.7147,-1.7169,-1.7148,-1.7154,-1.7176,-1.7178,-1.7211,-1.7174,-1.7202,-1.7203,-1.7198,-1.7276,-1.7288,-1.7345,-1.7251,-1.7252,-1.7253,0,-1.7068,-1.7083,-1.7133,-1.7142,-1.7151,-1.7173,-1.7192,-1.7211,-1.7223,-1.7222,-1.7235,-1.7226,-1.7255,-1.7228,-1.7269,-1.7244,-1.7256,-1.7259,-1.7261,-1.7262,-1.723,-1.7279,-1.7363,-1.7371,-1.7266,-1.7265,-1.7264,0,-1.7119,-1.7153,-1.7187,-1.7194,-1.7206,-1.7222,-1.7228,-1.7238,-1.7251,-1.7268,-1.7276,-1.7296,-1.7307,-1.7323,-1.7319,-1.7299,-1.7362,-1.7334,-1.7362,-1.7362,-1.7375,-1.7374,-1.7461,-1.7384,-1.7384,-1.7384,-1.7384,0,-1.7183,-1.7214,-1.721,-1.7231,-1.7265,-1.7258,-1.7293,-1.7297,-1.7307,-1.7328,-1.7316,-1.7336,-1.7331,-1.7352,-1.735,-1.7385,-1.739,-1.7391,-1.7389,-1.7391,-1.7391,-1.7397,-1.7393,-1.7386,-1.7386,-1.7385,-1.7385,0,-1.7246,-1.7245,-1.728,-1.7289,-1.7292,-1.7317,-1.7325,-1.7345,-1.7346,-1.7374,-1.738,-1.7381,-1.7406,-1.7404,-1.7432,-1.743,-1.7473,-1.7468,-1.7469,-1.7467,-1.7496,-1.7493,-1.7589,-1.7602,-1.7518,-1.7519,-1.7519,0,-1.7287,-1.731,-1.7321,-1.7335,-1.7341,-1.7363,-1.7376,-1.7371,-1.7386,-1.7402,-1.742,-1.7444,-1.7461,-1.7502,-1.7505,-1.7527,-1.7521,-1.7554,-1.7524,-1.7526,-1.7521,-1.752,-1.7522,-1.7559,-1.756,-1.7561,-1.7562,0,-1.7359,-1.7357,-1.7376,-1.7395,-1.7411,-1.7426,-1.7439,-1.7452,-1.7448,-1.7465,-1.7489,-1.7504,-1.7532,-1.7555,-1.7576,-1.7583,-1.7572,-1.7571,-1.7579,-1.758,-1.758,-1.758,-1.7483,-1.7569,-1.7568,-1.7567,-1.7567,-1.7567,-1.7411,-1.7431,-1.7442,-1.7464,-1.7474,-1.7487,-1.7506,-1.751,-1.753,-1.7553,-1.7549,-1.7577,-1.759,-1.7616,-1.7625,-1.7647,-1.7636,-1.7647,-1.765,-1.7652,-1.7655,-1.7577,-1.7651,-1.7651,-1.7651,-1.7651,-1.7651,0,-1.7482,-1.7488,-1.7509,-1.7528,-1.7546,-1.7534,-1.7549,-1.7565,-1.7589,-1.7602,-1.762,-1.7649,-1.7672,-1.7678,-1.7701,-1.7717,-1.7713,-1.7723,-1.7722,-1.7723,-1.7665,-1.7655,-1.7727,-1.7727,-1.7727,-1.7726,-1.7726,-1.7726,-1.752,-1.7554,-1.7554,-1.7592,-1.7599,-1.7626,-1.7635,-1.7648,-1.7658,-1.7691,-1.771,-1.7714,-1.7724,-1.7748,-1.7769,-1.777,-1.7779,-1.7791,-1.779,-1.7735,-1.7727,-1.772,-1.7711,-1.7793,-1.7793,-1.7847,-1.7848,-1.7848]},{"header":{"parameterUnit":"m.s-1","parameterCategory":1,"la1":30.2991,"la2":30.254,"lo1":-89.0895,"lo2":-89.0444,"dy":0.0017,"dx":0.0017,"nx":28,"ny":28,"refTime":"2024-04-13T09:00:00:Z","depth":0,"parameterNumber":3,"parameterNumberName":"V-component_of_WINDS"},"data":[0,0,0,0,0,0,0,0,0,0,0,0,0,0,0,0,0,0,0,0,0,0,0,0,0,0,0,0,0,0,0,0,0,0,0,0,0,0,0,0,0,0,0,0,0,0,0,0,0,0,0,0,0,0,0,0,0,0,3.2786,3.2786,0,3.28,3.28,3.28,3.2809,3.2809,3.2809,3.2809,3.2822,3.2823,3.2823,0,0,0,0,0,0,0,0,0,0,0,0,0,3.2768,3.2768,3.2786,3.2786,3.2786,3.28,3.28,3.28,3.2809,3.2809,3.2809,3.2809,3.2822,3.2823,3.2823,0,0,0,0,0,0,0,0,0,0,0,0,0,3.2778,3.2768,3.2786,3.2793,3.2793,3.28,3.28,3.28,3.2809,3.2809,3.2809,3.2809,3.2822,3.2823,3.2823,3.2824,0,0,3.2824,3.2825,0,0,0,0,0,0,0,0,3.2777,3.2779,3.2791,3.2792,3.2793,3.2803,3.2798,3.2808,3.2809,3.2803,3.2809,3.2809,3.2816,3.2817,3.2819,3.2824,3.2825,3.2824,3.2825,3.2825,3.2825,0,0,0,0,0,0,0,3.2777,3.2778,3.2791,3.2792,3.2793,3.2795,3.2796,3.28,3.2809,3.2804,3.2804,3.2806,3.2816,3.2819,3.2819,3.2825,3.2824,3.2825,3.2825,3.2825,3.2832,3.2832,0,0,0,0,0,0,3.2775,3.2777,3.2791,3.2792,3.2785,3.2795,3.2797,3.28,3.2809,3.281,3.2806,3.2806,3.2818,3.2819,3.282,3.2822,3.2825,3.2825,3.2826,3.2832,3.2832,3.2832,0,0,0,0,0,0,3.2774,3.2776,3.279,3.2785,3.2787,3.2795,3.2798,3.28,3.2802,3.281,3.2812,3.2807,3.2818,3.2819,3.2823,3.2822,3.2825,3.2826,3.2832,3.2832,3.2832,3.2825,0,0,0,0,0,0,3.2774,3.2776,3.2776,3.2785,3.2787,3.2793,3.2798,3.28,3.2803,3.2804,3.2812,3.2813,3.2818,3.2822,3.2823,3.2823,3.2826,3.2832,3.2832,3.2832,3.2825,3.2825,3.2824,0,0,0,0,0,3.2773,3.2773,3.2776,3.2778,3.2788,3.2793,3.2795,3.2801,3.2803,3.2803,3.2809,3.2813,3.2822,3.2822,3.2824,3.2823,3.2833,3.2832,3.2832,3.2826,3.2825,3.2824,0,0,0,0,0,0,3.2764,3.2775,3.2778,3.2781,3.2786,3.2795,3.2796,3.28,3.2804,3.2805,3.2812,3.2814,3.2817,3.282,3.2821,3.2825,3.2828,3.2828,3.2822,3.2822,3.2821,3.282,3.2827,0,0,0,0,0,3.2763,3.2766,3.2775,3.2777,3.278,3.2787,3.279,3.2794,3.28,3.2802,3.2807,3.2813,3.2817,3.2819,3.2824,3.2826,3.2828,3.2826,3.2826,3.2825,3.2825,3.2827,3.2826,3.2832,3.2832,3.2832,0,0,3.2759,3.2766,3.2767,3.2775,3.278,3.2784,3.2789,3.2792,3.2795,3.2802,3.2806,3.281,3.2817,3.282,3.2821,3.2823,3.2824,3.2825,3.2824,3.2825,3.2827,3.2826,3.2826,3.2831,3.2831,3.2831,0,0,3.2755,3.276,3.2762,3.2767,3.2774,3.2779,3.278,3.2788,3.2791,3.2795,3.2801,3.2804,3.2811,3.2815,3.2819,3.2817,3.2821,3.2818,3.2814,3.2816,3.2816,3.2815,3.2815,3.2815,3.2818,3.2818,3.2818,0,3.275,3.2756,3.2763,3.2766,3.277,3.2777,3.2779,3.2783,3.2791,3.2793,3.2795,3.2804,3.2809,3.2813,3.2813,3.2815,3.2816,3.2817,3.2815,3.2815,3.2815,3.2814,3.2814,3.2817,3.2817,3.2817,3.2817,0,3.275,3.2754,3.2754,3.2762,3.2766,3.2769,3.2776,3.2779,3.2783,3.2788,3.2792,3.2798,3.2804,3.2805,3.2809,3.281,3.2811,3.2814,3.2817,3.2814,3.2814,3.2813,3.2817,3.2817,3.2817,3.2817,0,0,3.274,3.2752,3.2752,3.2756,3.2765,3.2768,3.2771,3.2777,3.2779,3.2784,3.2787,3.2793,3.2796,3.28,3.2804,3.2806,3.2804,3.2809,3.2809,3.2808,3.2806,3.2804,3.2803,3.2807,3.2807,3.2807,3.2806,0,3.2737,3.2743,3.275,3.2754,3.2758,3.2765,3.2768,3.2773,3.2778,3.2782,3.2787,3.2791,3.2795,3.2797,3.2799,3.2804,3.2804,3.2804,3.281,3.281,3.2808,3.2803,3.2801,3.2799,3.2805,3.2805,3.2805,0,3.2735,3.274,3.2745,3.2753,3.2755,3.2757,3.2764,3.2767,3.2774,3.2777,3.2781,3.2786,3.279,3.2793,3.2798,3.2798,3.2801,3.2804,3.2804,3.2805,3.2807,3.2804,3.2799,3.2799,3.2805,3.2805,3.2805,0,3.2727,3.2736,3.274,3.2743,3.2753,3.2754,3.2758,3.2765,3.2768,3.2774,3.2776,3.2782,3.2785,3.2789,3.2795,3.2797,3.28,3.2803,3.2803,3.2803,3.2803,3.2803,3.2799,3.2805,3.2805,3.2805,3.2805,0,3.2724,3.2726,3.2737,3.2739,3.2742,3.2749,3.2752,3.2757,3.2763,3.2766,3.2773,3.2776,3.2784,3.2788,3.2793,3.2797,3.2798,3.2801,3.2802,3.28,3.28,3.2802,3.2802,3.2805,3.2805,3.2805,3.2805,0,3.2716,3.2723,3.2728,3.2737,3.2739,3.2741,3.2749,3.2752,3.2757,3.2761,3.2763,3.2771,3.2776,3.2783,3.279,3.2793,3.2796,3.2798,3.2794,3.2795,3.2795,3.2795,3.2791,3.2791,3.2797,3.2797,3.2797,0,3.2713,3.2715,3.2725,3.2728,3.2732,3.2736,3.274,3.2748,3.2751,3.2759,3.276,3.2766,3.2771,3.2779,3.2785,3.2791,3.2793,3.2792,3.2794,3.2792,3.2793,3.2793,3.2794,3.2791,3.2791,3.2791,3.2791,0,3.2707,3.2711,3.2716,3.2722,3.2726,3.2732,3.2737,3.2739,3.2748,3.2751,3.2757,3.2761,3.2768,3.2774,3.278,3.2785,3.2789,3.279,3.279,3.2789,3.2786,3.2788,3.2793,3.279,3.279,3.279,3.279,3.279,3.2702,3.2705,3.2712,3.2717,3.2722,3.2728,3.2731,3.2736,3.2741,3.2748,3.2752,3.2758,3.2764,3.2774,3.2778,3.2782,3.2784,3.2784,3.2784,3.2784,3.2784,3.2786,3.2783,3.2783,3.2783,3.2783,3.2783,0,3.2697,3.2702,3.2707,3.2715,3.2719,3.2723,3.273,3.2733,3.2738,3.2744,3.2749,3.2755,3.2761,3.2768,3.2774,3.2776,3.2779,3.2778,3.2778,3.2779,3.2782,3.2781,3.2776,3.2776,3.2776,3.2776,3.2776,3.2776,3.2695,3.2699,3.2704,3.2711,3.2716,3.2721,3.2725,3.273,3.2734,3.2742,3.2746,3.2751,3.2758,3.2764,3.277,3.2772,3.2774,3.2772,3.2775,3.2778,3.2778,3.2779,3.2778,3.2772,3.2772,3.2771,3.2771,3.2771]}]]